Weather Roundup
Issued by NWS

Home | Current Version | Previous Version | Text Only | Print | Product List | Glossary On
Versions: 1 2 3 4 5 6 7 8 9 10 11 12 13 14 15 16 17 18 19 20 21 22 23 24 25 26 27 28 29 30 31 32 33 34 35 36 37 38 39 40 41 42 43 44 45 46 47 48 49 50
000
NZUS93 KARX 310159
HRRWXR

CURRENT HOURLY OBSERVATIONS ACROSS
MUCH OF THE UPPER MISSISSIPPI VALLEY
NATIONAL WEATHER SERVICE LA CROSSE WI
900 PM CDT THU JUL 30 2015


...SOUTHEAST MINNESOTA...


CITY           SKY/WX    TMP DP  RH WIND       PRES   REMARKS
ROCHESTER      CLEAR     68  62  81 SW8       30.06S
ROCHESTER/MAYO FAIR      76  60  57 SW7       30.05S
WINONA         CLEAR     79  59  50 W6        30.01S
AUSTIN         CLEAR     75  61  60 W5        30.06S
ALBERT LEA     CLEAR     73  63  68 CALM      30.06S
DODGE CENTER   CLEAR     68  61  77 SW5       30.05F
PRESTON        CLEAR     71  60  67 W7        30.06S
OWATONNA       CLEAR     68  63  83 SW6       30.04F
FARIBAULT      CLEAR     73  63  68 CALM      30.04S
$$

...ELSEWHERE IN MINNESOTA...


CITY           SKY/WX    TMP DP  RH WIND       PRES   REMARKS
MINNEAPOLIS    PTCLDY    79  59  50 W8        30.00F
INTNL FALLS    MOCLDY    63  55  75 W5        29.89R
DULUTH         PTCLDY    69  54  58 W8        29.93S
RED WING       CLEAR     75  59  57 W3        29.99S
REDWOOD FALLS  PTCLDY    80  59  48 W10       30.02F
MANKATO        CLEAR     73  57  56 SW5       30.03F
WORTHINGTON    CLEAR     73  63  68 W6        30.10S
FAIRMONT       CLEAR     75  59  57 W7        30.06F
$$

...SOUTHWEST WISCONSIN...


CITY           SKY/WX    TMP DP  RH WIND       PRES   REMARKS
LA CROSSE      CLEAR     78  59  51 W7        30.00S
PRAIRIE DU CHI CLEAR     76  56  49 SW3       30.02S
BOSCOBEL       CLEAR     70  60  70 CALM      30.02S
LONE ROCK      NOT AVBL
PLATTEVILLE    CLEAR     72  60  66 W6        30.04S
FORT MC COY    CLEAR     74  56  52 CALM      30.01S
VIROQUA        FAIR      70  59  67 W6        30.04S
WIS DELLS      CLEAR     75  52  44 W3        30.00S
$$

...ELSEWHERE IN WISCONSIN...


CITY           SKY/WX    TMP DP  RH WIND       PRES   REMARKS
MILWAUKEE      CLEAR     81  52  36 W7        29.97S
MADISON        CLEAR     76  55  48 CALM      30.00R
GREEN BAY      CLOUDY    72  58  61 W5        29.94S
EAU CLAIRE     NOT AVBL
BLACK RVR FLS  FAIR      75  56  52 W5        29.99S
MEDFORD        CLEAR     70  58  63 W6        29.98S
WAUSAU         CLEAR     71  57  61 W5        29.95S
WIS RAPIDS     CLEAR     73  54  51 W6        29.99S
MARSHFIELD     CLEAR     71  55  56 W6        29.99S
RICE LAKE      CLEAR     71  56  60 W6        30.00S
$$

...NORTHEAST IOWA...


CITY           SKY/WX    TMP DP  RH WIND       PRES   REMARKS
DECORAH        CLEAR     75  61  60 CALM      30.04F
MASON CITY     CLEAR     75  66  73 W5        30.08S
CHARLES CITY   CLEAR     72  68  88 W3        30.07S
OELWEIN        CLEAR     72  68  88 W5        30.07S
$$

...ELSEWHERE IN IOWA...


CITY           SKY/WX    TMP DP  RH WIND       PRES   REMARKS
DES MOINES     PTCLDY    77  64  64 W6        30.09S
IOWA CITY      CLEAR     76  69  79 W6        30.07S
FORT DODGE     CLEAR     72  66  83 CALM      30.09S
$$

...NORTHERN ILLINOIS...


CITY           SKY/WX    TMP DP  RH WIND       PRES   REMARKS
CHICAGO-OHARE  CLEAR     80  59  48 W8        29.99S
CHICAGO-MIDWAY CLEAR     83  58  42 W7        29.99S
MOLINE         CLEAR     75  66  73 SW5       30.05R
ROCKFORD       CLEAR     74  60  61 W6        30.03R
PEORIA         CLEAR     79  64  60 W6        30.06S
$$

NOTE: "FAIR" INDICATES FEW OR NO CLOUDS BELOW 12,000 FEET WITH NO
SIGNIFICANT WEATHER AND/OR OBSTRUCTIONS TO VISIBILITY. WIND
SPEEDS ARE IN MILES-PER-HOUR.



USA.gov is the U.S. government's official web portal to all federal, state and local government web resources and services.